[[{"header":{"parameterUnit":"m.s-1","parameterCategory":1,"la1":30.2991,"la2":30.254,"lo1":-89.0895,"lo2":-89.0444,"dy":0.0017,"dx":0.0017,"nx":28,"ny":28,"refTime":"2024-07-08T09:00:00:Z","depth":0,"parameterNumber":2,"parameterNumberName":"U-component_of_WINDS"},"data":[0,0,0,0,0,0,0,0,0,0,0,0,0,0,0,0,0,0,0,0,0,0,0,0,0,0,0,0,0,0,0,0,0,0,0,0,0,0,0,0,0,0,0,0,0,0,0,0,0,0,0,0,0,0,0,0,0,0,6.1389,6.1391,0,6.1591,6.1594,6.1596,6.1517,6.1512,6.1507,6.1503,6.1714,6.1724,6.1734,0,0,0,0,0,0,0,0,0,0,0,0,0,6.0933,6.0942,6.1388,6.1391,6.1393,6.1591,6.1594,6.1597,6.1517,6.1512,6.1506,6.1501,6.1711,6.1722,6.1734,0,0,0,0,0,0,0,0,0,0,0,0,0,6.1133,6.0945,6.1388,6.1378,6.1379,6.159,6.1594,6.1597,6.1519,6.1512,6.1504,6.1498,6.1707,6.1721,6.1736,6.1971,0,0,6.1782,6.1789,0,0,0,0,0,0,0,0,6.1122,6.115,6.1377,6.1379,6.138,6.1521,6.1511,6.1723,6.1521,6.1466,6.1503,6.1494,6.1656,6.1675,6.1728,6.1981,6.199,6.1783,6.1792,6.1799,6.1803,0,0,0,0,0,0,0,6.1108,6.1141,6.1469,6.138,6.1382,6.1363,6.1384,6.1551,6.1598,6.147,6.1465,6.149,6.1655,6.1714,6.1733,6.1993,6.1783,6.1796,6.1806,6.1811,6.2445,6.2453,0,0,0,0,0,0,6.1094,6.113,6.1462,6.1475,6.1231,6.1377,6.14,6.1483,6.1596,6.1606,6.1495,6.1485,6.1692,6.1715,6.174,6.202,6.1799,6.1813,6.1822,6.2437,6.2447,6.2455,0,0,0,0,0,0,6.1084,6.1124,6.1454,6.1301,6.1341,6.1393,6.1487,6.1491,6.1549,6.1615,6.1624,6.1546,6.1687,6.1719,6.1913,6.2026,6.182,6.1833,6.2428,6.244,6.2451,6.2583,0,0,0,0,0,0,6.1071,6.1121,6.1211,6.1304,6.135,6.1624,6.1494,6.15,6.1575,6.1564,6.1665,6.1675,6.1684,6.1891,6.1928,6.2043,6.1845,6.2418,6.2434,6.2447,6.2568,6.2597,6.2622,0,0,0,0,0,6.1055,6.1241,6.1216,6.1256,6.1463,6.1631,6.1657,6.1662,6.1585,6.1675,6.1717,6.1672,6.2008,6.1912,6.1953,6.2074,6.2411,6.2429,6.2446,6.2556,6.2592,6.2621,0,0,0,0,0,0,6.1162,6.1253,6.1226,6.1447,6.1531,6.1617,6.1731,6.17,6.1809,6.1794,6.1797,6.1821,6.202,6.2067,6.1958,6.2305,6.2198,6.2224,6.2267,6.2302,6.2328,6.2312,6.1858,0,0,0,0,0,6.121,6.1338,6.1412,6.16,6.1643,6.168,6.1753,6.175,6.1838,6.1874,6.193,6.2018,6.2142,6.2225,6.2344,6.2575,6.2595,6.2679,6.2705,6.2727,6.275,6.2873,6.291,6.2513,6.2513,6.2513,0,0,6.1313,6.1379,6.146,6.1622,6.1687,6.182,6.1711,6.1856,6.1954,6.1896,6.2082,6.2127,6.2225,6.2438,6.2535,6.2482,6.2864,6.275,6.2766,6.2777,6.2895,6.2932,6.2965,6.2525,6.2523,6.2521,0,0,6.1567,6.1631,6.1793,6.186,6.1959,6.1982,6.2021,6.2111,6.2137,6.2324,6.2282,6.24,6.2616,6.2686,6.275,6.3029,6.2991,6.3068,6.3208,6.3328,6.3359,6.3387,6.3484,6.3519,6.3091,6.3091,6.3092,0,6.1682,6.1879,6.188,6.2028,6.21,6.2052,6.2216,6.2281,6.2415,6.2466,6.2405,6.2673,6.2737,6.2964,6.3032,6.3086,6.313,6.3056,6.3355,6.3382,6.3408,6.3501,6.3538,6.31,6.3099,6.3098,6.3097,0,6.2015,6.2152,6.2271,6.2399,6.2485,6.264,6.2664,6.2751,6.274,6.2769,6.2959,6.3033,6.3164,6.3218,6.321,6.3445,6.3409,6.3352,6.3244,6.3455,6.3541,6.3577,6.3112,6.3109,6.3106,6.3104,0,0,6.2342,6.2466,6.251,6.2566,6.2671,6.2778,6.293,6.3057,6.3131,6.3225,6.3352,6.3535,6.3482,6.3555,6.3554,6.366,6.3872,6.3589,6.3592,6.3637,6.4133,6.4173,6.4214,6.3849,6.3855,6.3861,6.4123,0,6.2602,6.2868,6.2873,6.3117,6.3243,6.3198,6.3331,6.341,6.3441,6.3552,6.3587,6.3716,6.3638,6.3681,6.3784,6.3825,6.3972,6.3806,6.3966,6.3971,6.394,6.426,6.4304,6.4548,6.4158,6.4164,6.4168,0,6.2941,6.3043,6.33,6.3384,6.3437,6.3556,6.3671,6.3779,6.3867,6.3882,6.3963,6.3946,6.4101,6.3989,6.4201,6.4089,6.4155,6.4185,6.4194,6.4208,6.4081,6.428,6.4626,6.4662,6.4222,6.4218,6.4214,0,6.315,6.3353,6.3531,6.3581,6.3685,6.3769,6.3817,6.3897,6.3973,6.4074,6.4123,6.4242,6.4307,6.44,6.4415,6.4332,6.4628,6.4517,6.4644,6.4643,6.4707,6.4702,6.5066,6.4753,6.4753,6.4752,6.4751,0,6.3439,6.3598,6.3626,6.3736,6.3911,6.3915,6.4088,6.4129,6.4201,6.4318,6.4288,6.4398,6.4412,6.4526,6.454,6.4712,6.4743,6.4759,6.476,6.476,6.4758,6.4802,6.4784,6.4762,6.4759,6.4758,6.4756,0,6.3703,6.3728,6.3919,6.4001,6.4025,6.4151,6.4221,6.4325,6.4353,6.4501,6.4536,6.458,6.4712,6.4736,6.4893,6.4902,6.5107,6.5093,6.5077,6.5074,6.5198,6.5185,6.5602,6.5655,6.5309,6.5313,6.5316,0,6.3884,6.4004,6.4098,6.4173,6.4224,6.4346,6.4422,6.443,6.4511,6.4619,6.471,6.4839,6.4942,6.5156,6.5202,6.5321,6.5307,6.5445,6.5325,6.5321,6.5306,6.5298,6.5309,6.5467,6.5471,6.5474,6.5477,0,6.4203,6.4209,6.4319,6.4434,6.4524,6.4615,6.4702,6.4765,6.4784,6.4876,6.501,6.509,6.5249,6.5376,6.5495,6.5543,6.5514,6.5514,6.5549,6.555,6.5534,6.5541,6.5137,6.5504,6.5501,6.5499,6.5498,6.5497,6.4429,6.4533,6.4614,6.4737,6.4802,6.4883,6.4984,6.5023,6.5135,6.5263,6.5262,6.5408,6.5491,6.5646,6.5703,6.5817,6.5773,6.5825,6.5837,6.5849,6.5859,6.5518,6.5839,6.5838,6.5838,6.5837,6.5837,0,6.4744,6.4794,6.4907,6.5027,6.5123,6.5085,6.5178,6.5261,6.539,6.5469,6.5571,6.5723,6.5847,6.5902,6.6023,6.6104,6.6093,6.6135,6.6128,6.6139,6.5893,6.5849,6.6141,6.6141,6.6141,6.6141,6.6141,6.6141,6.4919,6.5091,6.5107,6.531,6.5359,6.55,6.5556,6.563,6.5693,6.5864,6.5966,6.6,6.607,6.6195,6.6306,6.6319,6.6364,6.6412,6.6419,6.6188,6.6157,6.6127,6.6086,6.6423,6.6423,6.6654,6.6656,6.6658]},{"header":{"parameterUnit":"m.s-1","parameterCategory":1,"la1":30.2991,"la2":30.254,"lo1":-89.0895,"lo2":-89.0444,"dy":0.0017,"dx":0.0017,"nx":28,"ny":28,"refTime":"2024-07-08T09:00:00:Z","depth":0,"parameterNumber":3,"parameterNumberName":"V-component_of_WINDS"},"data":[0,0,0,0,0,0,0,0,0,0,0,0,0,0,0,0,0,0,0,0,0,0,0,0,0,0,0,0,0,0,0,0,0,0,0,0,0,0,0,0,0,0,0,0,0,0,0,0,0,0,0,0,0,0,0,0,0,0,1.6635,1.6636,0,1.6675,1.6676,1.6676,1.6627,1.6626,1.6624,1.6622,1.6664,1.6667,1.667,0,0,0,0,0,0,0,0,0,0,0,0,0,1.6516,1.6518,1.6635,1.6636,1.6636,1.6675,1.6676,1.6676,1.6628,1.6626,1.6623,1.6621,1.6663,1.6667,1.667,0,0,0,0,0,0,0,0,0,0,0,0,0,1.6563,1.6519,1.6635,1.6617,1.6615,1.6675,1.6676,1.6677,1.6628,1.6625,1.6623,1.662,1.6662,1.6666,1.6671,1.6751,0,0,1.6684,1.6685,0,0,0,0,0,0,0,0,1.6561,1.6568,1.6619,1.6618,1.6617,1.6644,1.6649,1.6702,1.6629,1.6623,1.6622,1.6619,1.666,1.6664,1.6678,1.6753,1.6755,1.6684,1.6686,1.6688,1.6689,0,0,0,0,0,0,0,1.6557,1.6566,1.6651,1.662,1.6618,1.6606,1.661,1.6659,1.6656,1.6624,1.662,1.6626,1.6659,1.6674,1.6678,1.6755,1.6684,1.6688,1.669,1.6692,1.6897,1.69,0,0,0,0,0,0,1.6556,1.6563,1.665,1.6652,1.6581,1.6611,1.6615,1.6638,1.6656,1.6656,1.6628,1.6623,1.6668,1.6673,1.6679,1.6774,1.6688,1.6692,1.6695,1.6894,1.6898,1.6901,0,0,0,0,0,0,1.6554,1.6564,1.6648,1.6607,1.6617,1.6615,1.6642,1.664,1.6655,1.6659,1.6658,1.6644,1.6666,1.6674,1.6733,1.6775,1.6694,1.6698,1.6891,1.6895,1.6899,1.6964,0,0,0,0,0,0,1.6551,1.6564,1.6595,1.6608,1.6619,1.6702,1.6644,1.6643,1.6662,1.6656,1.6673,1.6674,1.6664,1.6727,1.6737,1.6779,1.6701,1.6887,1.6893,1.6898,1.6958,1.697,1.698,0,0,0,0,0,1.6547,1.6612,1.6596,1.6607,1.6657,1.6704,1.671,1.6698,1.6666,1.6696,1.6699,1.6673,1.6768,1.6734,1.6745,1.6788,1.6884,1.6891,1.6897,1.6953,1.6968,1.698,0,0,0,0,0,0,1.6604,1.6613,1.6596,1.6668,1.6686,1.6696,1.6734,1.6714,1.6741,1.6735,1.6718,1.6723,1.6786,1.6793,1.6754,1.6866,1.6821,1.683,1.6859,1.6873,1.6884,1.6881,1.6705,0,0,0,0,0,1.6625,1.6662,1.6668,1.6731,1.674,1.6736,1.6756,1.6744,1.6762,1.677,1.6776,1.6795,1.6828,1.6851,1.6882,1.6958,1.6961,1.6994,1.7005,1.7014,1.7022,1.7061,1.7076,1.6922,1.6922,1.6922,0,0,1.6669,1.6679,1.6703,1.6743,1.6755,1.6793,1.6743,1.6786,1.6814,1.6776,1.6833,1.6838,1.6857,1.6925,1.6955,1.6933,1.7065,1.7022,1.7029,1.7033,1.707,1.7084,1.7097,1.6927,1.6926,1.6925,0,0,1.6769,1.678,1.6833,1.6846,1.6865,1.6861,1.6874,1.6887,1.6888,1.6945,1.6916,1.695,1.7009,1.7023,1.7038,1.7141,1.7118,1.7152,1.721,1.7248,1.726,1.7271,1.7307,1.732,1.716,1.716,1.716,0,1.6822,1.6879,1.6863,1.6908,1.6925,1.6891,1.6944,1.6958,1.6986,1.6999,1.6973,1.7045,1.7056,1.7126,1.7151,1.7165,1.7178,1.715,1.726,1.727,1.728,1.7314,1.7328,1.7164,1.7163,1.7163,1.7163,0,1.6942,1.6981,1.7022,1.7049,1.7071,1.712,1.7111,1.7135,1.7122,1.712,1.7177,1.7188,1.7221,1.7236,1.7224,1.7305,1.729,1.7262,1.7217,1.7299,1.7331,1.7344,1.7169,1.7168,1.7167,1.7166,0,0,1.7081,1.7097,1.7112,1.7124,1.7141,1.7171,1.7218,1.7249,1.727,1.729,1.7328,1.7378,1.7352,1.7369,1.7357,1.7391,1.7471,1.7359,1.7359,1.7379,1.7559,1.758,1.7596,1.7456,1.7458,1.746,1.7558,0,1.718,1.7261,1.7247,1.7325,1.7361,1.7328,1.7369,1.7384,1.7383,1.7414,1.7413,1.7448,1.7412,1.7422,1.7454,1.7455,1.7507,1.7447,1.7491,1.7493,1.7488,1.7613,1.7635,1.7727,1.757,1.7572,1.7574,0,1.7307,1.7331,1.7413,1.7423,1.7438,1.7474,1.7501,1.753,1.7546,1.7543,1.7561,1.7543,1.7589,1.7542,1.7604,1.7564,1.7581,1.7584,1.7587,1.7591,1.7539,1.762,1.7756,1.7769,1.7593,1.7592,1.759,0,1.74,1.7452,1.7508,1.7518,1.7532,1.7558,1.7565,1.7578,1.7597,1.762,1.7632,1.766,1.7676,1.7698,1.7687,1.7654,1.7752,1.7704,1.775,1.7751,1.7773,1.7772,1.7914,1.7784,1.7784,1.7783,1.7783,0,1.7513,1.7564,1.7549,1.7583,1.7639,1.7622,1.7678,1.7681,1.7692,1.7726,1.7699,1.7732,1.7715,1.7746,1.7738,1.7791,1.7798,1.7797,1.7794,1.7799,1.7799,1.781,1.7804,1.7787,1.7786,1.7785,1.7785,0,1.7626,1.7618,1.7676,1.7684,1.7687,1.7727,1.7734,1.7765,1.7762,1.7805,1.7814,1.7809,1.7844,1.7835,1.7873,1.7867,1.7933,1.7923,1.7928,1.7925,1.7972,1.7968,1.8126,1.8145,1.8003,1.8005,1.8006,0,1.7698,1.7737,1.7748,1.7768,1.7777,1.781,1.7829,1.7813,1.7834,1.7854,1.7883,1.7915,1.794,1.7996,1.7996,1.8025,1.8014,1.8068,1.8018,1.8022,1.8015,1.8012,1.8016,1.8078,1.8079,1.8081,1.8082,0,1.7828,1.7822,1.785,1.7876,1.7899,1.792,1.7937,1.7956,1.7941,1.7965,1.8,1.8019,1.8057,1.8089,1.8115,1.8121,1.8099,1.8097,1.8109,1.8115,1.8116,1.8116,1.7955,1.8094,1.8092,1.8092,1.8091,1.809,1.7923,1.7955,1.7967,1.7999,1.801,1.8027,1.8056,1.8056,1.8085,1.8114,1.8103,1.8143,1.8156,1.8188,1.8198,1.8228,1.8208,1.8226,1.823,1.8235,1.824,1.8111,1.8233,1.8232,1.8232,1.8232,1.8231,0,1.805,1.8056,1.8085,1.811,1.8135,1.8111,1.8129,1.8151,1.8186,1.82,1.8225,1.8264,1.8294,1.8296,1.8324,1.8348,1.8338,1.8356,1.8354,1.8356,1.8257,1.8243,1.8363,1.8363,1.8363,1.8363,1.8363,1.8363,1.8119,1.8172,1.8167,1.8225,1.823,1.8268,1.828,1.8295,1.8306,1.8351,1.8376,1.8376,1.8385,1.8413,1.8439,1.8439,1.8451,1.8472,1.8468,1.8376,1.8363,1.835,1.8337,1.8475,1.8475,1.8564,1.8564,1.8565]}]]